Location: Gleizolles
(44.4833°N, 6.7667°E)
Time: 01:40:04
(UTC+00:00)

Vanguard 2 Rocket - Pass Details

Date: 23 June 2024
Orbit: 555 x 3302 km, 32.9° (Epoch: 24 July)

Event Time Altitude Azimuth Distance (km) Brightness Sun altitude
Rises 08:22:17 0° 277° (W) 6,847 10.9 45.6°
Reaches altitude 10° 08:29:07 10° 264° (W) 5,383 10.5 46.8°
Maximum altitude 08:38:07 19° 227° (SW) 3,897 10.1 48.3°
Drops below altitude 10° 08:44:53 10° 187° (S) 3,867 10.3 49.5°
Sets 08:48:41 0° 169° (S) 4,406 10.7 50.1°
